sat.trackr.live / text

‹ back to catalog

STARLINK-5873

NORAD 56490 · 2023-064AU

PAYLOAD ACTIVE UNKNOWN

§ Identity

Operator
Country
US
Launch date
2023-05-10
Launch site
AFWTR
Launch vehicle
Mass (kg)
RCS (m²)

Purposes: comms

External: N2YO · Heavens-Above · Gunter

§ Orbital elements

Epoch: 2026-09-20T22:16:49.034784Z

Period
96.11 min
Inclination
69.9995°
Eccentricity
0.0003277
Mean motion
14.98335377 rev/d
Perigee alt
569.8 km
Apogee alt
574.3 km
Semi-major
6,950.2 km
B*
3.8890e-5
RAAN
332.3398°
Arg perigee
269.5587°
Mean anomaly
90.5197°
Rev number
18,547

§ Raw data

STARLINK-58731 56490U 23064AU  26263.92834531  .00000371  00000+0  38890-4 0  99952 56490  69.9995 332.3398 0003277 269.5587  90.5197 14.98335377185471

JSON: /api/v1/satellites/56490 · /tle

For live sub-satellite position, see the globe view (requires WebGL).

§ Visibility from observer

Set your observer location to see the next 7 days of passes ≥ 10°. The values pass through the URL so the page stays shareable.

No JS? Fill the form by hand. The geolocation button needs JavaScript.